Beaufort, SC

10:46 PM EST on March 05, 2015 (GMT -0500)
KSCBEAUF5 | Change Station
CLOSE
Current Station
Personal Weather Station
Location: Beaufort, SC
Elevation: 13 ft
Nearby Weather Stations
Active Advisory: Freeze Watch

Elev 13 ft 32.42 °N, 80.69 °W | Updated 60 seconds ago

Overcast
Overcast
60.4 °F
Feels Like 60.4 °F
N
7.0
Wind Variable Wind from WNW
Gusts 16.0 mph

Today
High -- | Low -- °F
--% Chance of Precip.
Yesterday
High -- | Low -- °F
Precip. -- in
6:45 AM 6:23 PM
Full, 100% visible
Pressure 30.13 in
Visibility 10.0 miles
Clouds Scattered Clouds 1100 ft
Overcast 1900 ft
Dew Point 59 °F
Humidity 95%
Rainfall in
Snow Depth Not available.
UV 0.0 out of 12
Pollen 9.60 out of 12
Air Quality Not available.
Flu Activity Not available.
METAR KARW 060355Z AUTO 32008KT 10SM SCT011 OVC019 16/16 A3013 RMK AO2

More Conditions Fewer Conditions

Pressure 30.13 in
Visibility 10.0 miles
Clouds Scattered Clouds 1100 ft
Overcast 1900 ft
Dew Point 59 °F
Humidity 95%
Rainfall in
Snow Depth Not available.
UV 0.0 out of 12
Pollen 9.60 out of 12
Air Quality Not available.
Flu Activity Not available.
METAR KARW 060355Z AUTO 32008KT 10SM SCT011 OVC019 16/16 A3013 RMK AO2

More Conditions Fewer Conditions

10-Day Weather Forecast

Almanac

Astronomy

Mar. 05, 2015 Rise Set
Actual Time
Civil Twilight
Nautical Twilight
Astronomical Twilight
Moon
Length of Visible Light
Length of Day
Tomorrow will be .
, % of the Moon is Illuminated

Today's Extremes

State Highs State Lows

Community

WunderPhotos

Upload Photos

1,803,171 photos uploaded!

WunderBlogs® & News

Nearby

Air Quality

  Air Quality AQ Index Pollutant
Not available.

Snow Depth

Station Depth Elevation

Earthquake Activity

City Distance Mag. Time & Date
Minimum magnitude displayed is 2.5.

Coastal Water Temperatures

Place Temperature

Nearby Weather Stations

Freeze Watch
Statement as of 9:26 PM EST on March 05, 2015

... Freeze watch remains in effect from Friday evening through
Saturday morning...

* locations... most of southeast South Carolina and southeast
Georgia with the exception of coastal Georgia.

* Temperatures... 28 to 32 degrees.

* Timing... dropping below freezing late Friday evening before
rising above freezing between 8 and 9 am Saturday. Freeze
duration of 5 to 8 hours possible.

* Impacts... freezing temperatures could kill sensitive
vegetation and damage unprotected outdoor plumbing.

Precautionary/preparedness actions...

Be prepared for the potential of freezing temperatures which
could harm sensitive outdoor vegetation and damage unprotected
outdoor plumbing.